Theta_e
313 313 313 313 313 312 312 311 311 309 309 305 301 301 292 291 288 298 302 304 300 293 286 292 292 287 290 295 294 294 292 290 291 290 292 289 291 288 287 287 286 288 286 286 285 286 285 288 286 288 289 290 292 294 293 294 292 292 290 292 293 300 287 285 285 287 291 294 296 298 300 298 296 297 296 295 292 293 292 293 290 291 289 291 291 289 294
312 313 313 313 313 312 312 311 311 310 309 305 303 293 291 292 292 295 302 304 299 292 283 284 285 290 292 292 292 294 292 291 290 290 291 290 290 288 289 290 291 289 290 288 285 288 280 288 288 286 290 287 294 294 294 295 291 292 292 292 296 285 286 284 280 281 287 292 293 295 296 295 291 290 292 294 296 295 294 295 293 292 291 293 288 287 292
313 313 313 313 312 312 311 310 311 311 310 308 302 294 295 294 296 294 297 302 298 289 289 286 285 288 288 289 288 290 291 293 292 291 290 292 291 289 288 290 290 289 291 288 289 289 286 283 289 290 291 289 295 294 293 295 293 297 299 300 297 289 288 284 278 276 278 282 283 281 282 287 290 292 292 293 292 292 293 291 292 288 292 293 291 292 298
313 313 313 313 312 312 311 311 311 311 310 308 303 298 296 289 284 290 292 294 294 293 294 291 288 286 287 287 289 290 288 292 294 293 291 292 292 290 292 292 292 290 289 287 287 287 289 286 285 287 286 289 292 293 293 294 294 299 299 298 295 289 291 287 285 281 280 283 284 288 291 289 286 288 290 290 293 294 293 293 289 288 289 291 294 296 296
312 313 313 312 312 311 311 311 311 311 309 309 303 298 292 290 284 286 284 290 290 288 289 289 289 286 290 283 289 286 288 289 291 294 288 292 291 290 290 290 288 288 288 286 286 287 286 288 286 285 287 289 290 293 294 294 297 299 296 297 293 290 284 287 287 286 287 288 288 290 291 287 288 288 288 291 291 292 292 291 290 293 289 290 295 296 296
312 312 313 313 312 312 312 311 311 310 309 308 298 289 291 283 288 289 291 285 283 284 285 289 288 290 290 287 291 288 287 288 286 291 293 292 293 287 289 290 290 289 288 287 283 286 285 285 283 287 287 288 289 288 293 292 296 296 293 296 291 287 283 286 287 286 288 289 289 290 289 289 289 289 289 289 291 292 291 292 294 295 293 292 295 295 296
312 313 313 313 312 312 312 312 311 310 308 305 295 289 291 291 291 291 295 286 288 287 289 290 289 287 288 290 291 287 287 286 289 289 288 290 289 290 283 286 289 289 290 288 284 284 281 281 285 285 284 286 286 284 290 292 295 293 292 292 295 289 284 286 287 286 287 288 288 290 288 288 289 289 290 292 292 292 294 294 296 296 295 295 296 296 298
312 312 313 313 313 312 313 312 311 310 308 305 298 293 288 289 290 288 294 293 291 291 289 289 288 284 291 288 288 289 288 286 289 291 289 286 288 292 287 287 289 290 289 287 284 285 286 285 283 286 286 286 286 285 287 289 294 293 290 291 293 289 285 292 288 285 285 287 289 290 289 289 287 289 291 292 294 297 300 300 300 300 297 298 296 296 297
312 312 312 313 313 312 313 312 312 310 309 303 299 297 298 299 301 299 292 288 291 292 290 287 286 283 288 288 289 289 288 287 289 288 292 289 287 290 287 289 289 290 289 288 287 289 288 288 288 289 288 284 288 286 287 292 288 290 289 290 290 290 286 290 288 283 283 287 288 288 289 288 288 288 291 295 297 298 303 299 302 297 295 295 295 294 296
312 312 313 313 313 312 312 312 312 310 309 304 302 296 305 303 304 302 296 288 293 288 289 286 283 280 288 290 289 287 288 290 291 287 292 294 293 292 291 291 289 288 287 287 288 291 291 291 292 292 292 292 292 292 291 291 289 288 288 292 289 289 287 285 285 282 282 286 287 287 287 289 289 291 295 297 298 300 303 308 309 308 306 298 295 297 305
312 312 312 312 313 313 313 313 313 312 308 304 301 299 302 299 297 298 297 288 290 290 289 287 286 289 289 291 288 290 289 290 291 287 287 293 292 295 293 291 287 286 286 290 294 295 295 295 295 295 293 292 291 291 292 292 292 291 289 289 289 290 287 285 288 281 281 284 286 287 286 282 285 298 301 300 298 300 299 302 308 309 309 306 308 308 312
312 312 313 312 313 313 313 313 313 311 310 308 307 303 304 306 302 298 293 286 288 291 289 286 288 290 288 289 289 288 288 289 290 293 289 290 292 294 293 291 289 284 291 296 298 297 296 296 294 293 292 291 291 291 291 289 290 294 293 289 289 288 288 286 288 283 280 284 286 286 282 285 298 301 303 303 303 303 302 303 311 310 310 309 310 311 313
312 312 312 313 313 313 313 313 313 311 310 309 307 302 307 307 301 297 294 290 286 289 287 288 291 290 290 289 289 289 291 292 293 293 293 292 291 293 293 291 290 292 298 296 296 294 289 286 287 287 288 289 289 289 289 289 289 291 292 293 290 288 287 287 286 285 286 281 282 277 283 293 295 307 304 304 304 304 304 303 310 310 309 309 308 311 315
312 312 313 313 313 313 313 313 313 313 311 309 307 306 308 306 299 297 295 290 289 292 291 289 289 288 289 289 289 290 291 291 292 293 291 294 292 292 294 296 296 299 298 297 293 289 285 283 281 281 283 285 286 286 290 291 291 290 290 292 293 290 289 288 283 288 278 281 281 282 288 290 297 296 298 300 297 300 300 295 302 311 309 309 308 311 315
312 313 313 313 313 313 313 313 314 314 313 309 309 308 307 307 305 300 299 295 288 292 292 286 289 290 291 291 292 288 288 288 289 290 294 295 293 295 295 297 299 299 298 293 287 285 283 280 278 277 278 278 275 279 289 287 294 295 293 292 293 292 287 289 284 283 285 280 277 279 280 282 291 298 304 305 305 306 306 303 301 310 309 310 309 310 313
312 313 313 313 313 314 313 314 314 313 312 309 309 307 308 309 307 305 300 295 292 285 290 294 294 292 290 291 292 290 287 288 288 289 290 291 293 296 298 300 300 299 296 293 288 286 282 279 278 277 275 277 284 282 282 287 287 293 295 293 292 292 292 291 286 284 283 279 276 276 275 282 294 297 301 305 306 308 309 301 300 308 309 310 310 310 311
312 313 313 313 314 314 314 314 314 312 312 309 308 308 306 310 307 303 299 297 294 289 296 296 296 295 293 291 293 292 292 289 291 287 287 289 292 294 296 299 300 298 295 290 287 285 281 277 278 278 280 284 281 281 286 285 284 286 291 294 290 288 288 288 284 283 283 281 278 275 283 281 293 300 302 305 309 309 304 295 297 305 310 309 310 310 310
312 313 313 314 314 314 314 314 314 314 312 312 309 307 307 311 309 306 302 297 292 292 296 298 295 292 291 293 291 295 297 296 294 296 292 293 293 291 293 296 293 297 297 288 287 279 279 279 279 278 278 287 288 288 279 285 282 284 285 287 286 286 287 287 282 283 284 284 280 282 284 295 302 302 304 309 310 307 297 290 298 308 309 309 310 311 311
313 313 313 314 314 314 314 314 314 314 314 310 310 308 307 310 310 307 302 298 296 290 297 300 300 297 299 301 297 298 298 297 295 290 290 290 292 297 297 297 297 289 292 286 284 281 281 280 281 281 281 285 287 282 287 283 283 287 287 286 285 286 287 287 286 283 282 282 280 281 285 298 304 306 309 309 306 292 292 302 311 309 307 308 309 310 313
313 313 313 314 313 314 314 314 313 313 314 310 309 305 308 310 310 308 302 297 297 295 298 299 299 296 300 297 295 294 296 297 296 292 291 287 297 297 294 289 294 294 290 287 282 283 279 277 280 284 281 282 285 290 285 286 289 285 285 289 288 287 283 283 283 286 286 285 281 280 277 293 306 307 306 305 296 294 303 306 309 310 308 307 308 310 312
312 313 313 313 313 314 313 313 313 313 313 313 308 306 305 310 310 310 308 303 298 294 296 303 302 300 301 299 300 300 298 295 296 294 296 295 299 295 284 285 290 291 287 286 280 280 283 280 281 280 284 284 287 288 282 284 285 290 289 287 288 293 286 285 288 294 283 282 280 282 295 299 307 306 296 302 304 307 307 307 305 307 307 306 307 308 312
312 313 313 313 313 314 313 313 313 313 313 313 309 309 304 308 310 310 310 308 300 297 299 303 305 303 305 305 304 304 302 301 302 303 298 295 300 297 295 297 295 294 295 294 290 288 288 285 286 284 282 285 288 284 287 282 282 287 293 291 282 292 288 291 285 293 288 286 290 297 303 306 307 308 305 305 306 308 309 309 307 305 306 309 308 308 312
312 312 313 313 313 313 313 313 313 314 313 313 310 306 303 307 307 311 309 302 304 304 305 304 305 305 307 308 309 308 307 308 307 306 305 298 295 298 296 295 294 300 299 298 291 289 287 285 284 286 284 286 284 285 287 287 284 287 285 292 292 295 296 297 293 290 295 296 296 300 301 305 305 307 306 303 305 306 309 307 305 307 308 309 308 311 312
312 312 312 313 313 313 313 313 313 313 313 313 311 306 304 304 306 308 306 305 301 297 301 303 299 296 299 301 306 310 309 308 308 308 310 306 294 296 300 301 303 300 299 300 301 293 290 289 289 289 284 287 288 284 282 283 285 289 287 288 292 295 297 295 289 292 288 286 296 295 297 301 304 304 305 306 307 307 308 308 307 308 310 310 312 313 313
312 312 313 313 313 313 313 313 312 312 313 312 312 311 310 308 309 308 302 296 296 295 291 296 298 302 305 308 309 307 309 310 312 309 309 307 303 297 295 302 305 300 298 300 303 298 296 290 290 288 284 290 291 284 291 286 286 293 285 288 290 290 299 292 292 291 288 289 294 295 298 305 307 307 307 306 306 307 307 308 308 310 312 312 312 314 313
312 312 313 312 312 312 312 312 312 312 312 312 312 307 306 305 306 305 305 304 303 300 293 292 297 306 308 305 304 307 309 310 310 309 309 308 308 306 304 305 303 306 304 304 302 296 295 292 291 289 285 288 296 288 287 293 290 294 289 288 294 295 296 287 292 289 291 294 295 296 297 302 304 304 305 310 307 307 306 306 308 309 309 309 310 311 310
312 312 312 312 312 312 312 312 312 311 312 311 308 306 306 304 304 305 303 303 297 291 293 291 296 300 304 301 305 307 308 309 309 309 309 309 307 308 306 303 302 302 301 300 302 298 296 292 289 287 290 289 295 291 292 290 290 289 289 293 297 294 289 293 291 287 286 288 291 294 289 289 295 296 299 305 308 307 306 306 306 306 307 308 307 308 308
312 312 312 312 312 312 311 311 311 311 310 312 310 307 309 306 307 307 307 307 300 292 292 293 294 299 304 300 306 304 306 309 308 309 309 309 307 306 305 303 302 300 299 298 292 292 289 286 286 293 293 294 291 289 295 294 293 290 290 292 295 291 291 291 287 287 286 292 294 295 295 294 295 296 301 302 301 306 306 305 304 305 308 309 308 306 306
312 312 312 312 312 312 311 311 310 311 310 307 304 305 304 307 308 308 309 310 309 302 300 299 301 296 293 298 304 302 306 308 307 308 308 307 306 305 304 304 302 302 301 301 298 296 292 290 294 290 288 296 292 288 291 286 286 285 290 293 294 295 296 294 293 293 294 296 295 296 295 293 296 299 299 299 301 302 305 307 306 307 308 309 308 308 306
312 312 312 312 312 311 311 311 311 311 309 305 305 303 301 303 307 307 309 310 308 306 297 292 288 291 299 301 301 302 305 308 306 306 305 304 303 303 302 302 303 304 302 299 297 291 295 294 296 297 299 301 291 290 287 289 286 289 294 294 295 296 296 297 298 295 293 298 298 298 297 297 298 299 299 300 301 303 302 306 308 306 308 309 308 306 307
312 312 312 312 312 311 311 310 311 312 310 304 300 292 289 291 299 309 310 311 311 305 300 297 293 298 295 301 302 300 302 307 303 302 303 302 302 304 304 303 303 304 297 297 296 295 297 292 293 294 300 299 296 288 286 286 285 287 292 294 295 296 297 298 300 300 299 299 300 300 299 298 300 299 299 299 300 301 302 305 310 311 311 308 308 308 307
312 312 311 311 311 311 311 311 311 311 305 302 297 297 296 299 303 307 311 312 310 303 297 291 291 289 288 296 302 307 306 306 306 303 301 305 299 303 301 301 298 303 300 296 297 295 293 295 295 295 294 297 296 288 287 285 284 285 292 294 297 298 299 299 299 301 303 304 301 298 297 297 299 297 297 300 300 301 301 303 309 310 311 312 311 310 310
312 311 310 311 311 311 312 312 312 310 304 306 308 310 309 309 308 311 312 308 305 300 297 289 287 289 288 293 302 305 309 304 301 299 297 303 299 302 298 303 301 301 309 298 292 291 296 297 296 293 295 297 290 286 285 284 286 292 295 297 297 298 298 299 300 301 302 302 302 297 296 299 300 300 301 301 302 302 303 304 306 307 307 307 307 308 309
311 311 311 311 312 312 312 312 313 310 309 303 301 301 305 309 309 310 309 305 300 299 297 292 289 288 290 298 295 301 308 297 296 297 293 301 302 298 296 299 299 295 295 294 295 295 297 298 293 293 296 291 290 285 284 288 293 294 295 296 297 298 298 298 299 299 300 301 302 303 303 302 302 303 302 301 300 302 303 302 303 305 305 305 305 306 307
310 310 311 311 312 313 313 312 306 305 298 298 301 302 306 312 310 311 310 305 297 296 294 294 293 290 292 294 291 294 304 301 298 299 294 295 305 297 297 293 292 290 293 301 293 293 292 294 298 291 286 290 287 286 287 289 293 294 295 295 297 297 297 296 297 299 301 302 302 302 302 302 300 299 300 301 300 300 299 300 302 302 301 301 303 304 307
311 311 312 313 312 312 308 308 302 301 300 300 301 310 314 314 314 305 306 307 303 295 293 293 295 292 294 288 290 297 310 301 301 298 298 299 298 301 299 293 286 291 298 294 290 293 290 298 295 287 290 287 286 288 290 294 293 294 295 295 297 297 296 297 298 300 302 303 302 303 302 300 298 298 299 299 299 299 299 299 300 301 301 301 302 303 305
312 312 312 311 307 306 301 301 307 304 303 303 309 315 314 313 309 310 307 305 305 305 296 294 292 292 294 293 296 299 302 293 298 296 295 295 294 300 296 289 287 295 291 288 291 291 294 301 291 287 287 286 288 295 296 297 295 295 295 297 298 299 299 299 300 300 301 302 302 302 302 300 298 297 296 297 298 298 298 298 299 299 299 300 302 305 305
312 311 303 302 301 297 298 302 304 305 315 314 314 308 303 305 298 302 302 298 301 304 298 296 291 291 296 295 292 300 300 294 298 294 292 298 293 292 299 294 294 296 284 287 290 297 295 291 286 286 287 295 298 298 298 298 298 298 298 298 298 299 300 300 299 298 298 298 298 299 300 299 297 296 296 296 296 297 297 299 300 301 301 303 304 306 309
309 305 302 300 297 296 299 304 309 315 309 308 305 303 301 302 297 295 297 297 301 298 300 296 293 293 294 294 295 302 300 298 297 294 290 296 294 289 295 287 295 290 279 281 288 300 286 286 288 286 286 293 294 296 299 299 299 299 299 299 299 300 300 300 300 298 297 297 299 300 300 298 297 296 296 297 297 297 298 299 299 301 303 305 307 311 311
305 304 302 300 302 305 309 310 314 309 308 302 299 298 296 301 296 290 294 290 290 298 298 291 294 294 298 297 296 295 306 300 294 292 292 294 299 291 294 290 289 285 277 280 287 297 286 283 285 286 287 293 294 297 298 298 298 299 298 299 300 300 300 300 300 300 300 300 301 302 303 303 303 303 303 303 303 303 306 307 309 310 311 311 312 310 308
304 306 304 301 303 304 305 306 303 302 302 300 296 296 292 288 295 297 294 287 284 288 298 295 297 296 301 300 298 295 303 308 302 301 297 293 301 299 288 286 295 286 280 280 290 292 284 283 286 286 288 294 296 298 299 298 299 299 299 299 299 299 299 299 300 300 300 299 299 300 302 303 303 304 304 304 304 303 304 304 305 306 307 307 307 308 309
304 305 305 306 304 303 303 303 300 301 303 301 290 285 287 292 292 289 291 289 288 293 294 297 295 296 296 300 300 300 300 305 304 304 295 292 301 292 288 288 289 281 279 287 294 287 285 283 285 286 292 296 299 300 299 298 299 299 299 299 299 299 299 299 299 300 300 299 299 300 301 301 302 303 304 304 304 304 304 303 303 304 304 306 307 307 308
308 307 306 303 303 301 301 290 296 293 285 285 282 283 286 283 287 287 289 293 297 296 295 301 300 303 304 306 300 302 299 303 301 301 297 290 296 291 285 282 284 279 286 294 289 285 283 284 284 289 294 296 298 299 299 299 299 300 300 300 299 299 299 299 299 299 300 300 299 299 300 301 301 302 303 304 305 304 305 305 305 304 304 305 305 306 307
308 309 306 302 296 300 299 288 296 293 287 282 281 282 284 282 286 287 287 288 290 292 294 294 294 295 294 299 298 298 300 301 302 297 295 293 289 287 284 280 284 290 294 289 288 283 284 288 290 292 294 296 298 299 298 298 298 299 299 300 301 301 300 299 300 299 299 300 299 300 300 300 301 302 302 303 303 303 304 304 305 306 305 305 304 305 306
307 295 287 290 288 290 288 284 288 284 284 285 287 284 285 284 285 283 286 291 295 294 296 297 295 296 298 301 301 299 299 294 298 294 291 292 284 284 284 283 287 290 287 284 287 288 287 286 292 294 294 295 296 298 299 299 299 299 299 300 300 301 300 299 298 299 299 299 299 299 299 300 300 301 301 301 302 303 303 302 305 305 304 304 303 303 305
298 294 287 286 285 286 285 283 282 282 286 289 288 287 286 287 286 289 293 295 293 294 295 296 296 298 298 300 295 295 294 293 290 292 292 286 284 283 289 292 290 284 284 284 282 282 284 289 292 293 295 296 296 296 298 298 300 300 299 298 299 300 300 300 299 299 299 300 299 299 299 299 299 300 300 301 301 302 302 302 304 304 305 304 303 303 303
294 295 286 286 284 285 288 285 284 287 290 289 290 289 291 293 293 294 293 295 294 296 296 297 296 297 294 294 293 293 294 295 291 292 289 284 285 286 292 288 284 286 283 282 283 284 287 291 294 296 296 296 295 295 296 297 299 299 299 300 300 299 299 300 300 299 300 300 300 299 299 299 299 300 301 300 300 301 302 303 302 303 304 303 304 305 304
293 291 288 287 284 284 285 288 291 291 292 294 291 291 292 293 292 293 295 295 296 296 295 295 295 294 295 295 293 291 290 291 287 287 292 289 289 284 280 286 286 288 287 285 285 290 291 294 296 297 297 297 295 294 294 296 298 299 299 299 299 300 300 300 300 300 301 300 300 299 299 299 299 300 300 300 301 301 302 302 302 302 302 303 304 304 305
292 288 290 285 287 288 288 291 290 290 291 290 291 291 292 293 294 294 296 296 295 296 296 295 296 294 290 293 290 289 287 289 284 283 287 286 284 282 284 283 284 283 289 291 290 293 294 296 299 299 297 295 295 294 294 295 298 299 299 299 299 301 301 301 300 300 301 301 301 301 300 301 300 300 300 300 300 300 301 302 301 301 301 302 302 303 303
293 292 291 287 289 287 290 290 290 289 287 289 289 290 291 291 292 294 296 298 295 295 295 297 296 291 289 291 285 286 286 286 286 284 284 284 287 289 287 283 284 284 287 292 293 295 297 298 299 297 296 293 296 294 293 294 299 301 299 299 299 300 300 299 299 299 298 299 300 301 301 301 300 299 299 299 300 301 301 301 301 300 301 301 302 302 302
291 288 291 291 291 291 292 290 287 287 288 288 289 290 291 292 292 293 296 297 294 292 291 289 287 286 284 282 282 283 287 293 289 288 286 286 290 288 283 282 284 288 290 294 295 297 298 299 298 297 295 294 295 294 294 295 297 298 299 299 299 298 298 298 297 297 297 297 298 301 299 300 301 301 302 301 301 300 300 301 302 301 301 301 301 301 301
288 291 293 294 295 293 292 290 291 290 291 292 291 291 293 294 294 296 297 294 291 291 289 290 288 283 279 282 286 289 292 290 287 288 285 288 291 287 286 286 288 290 291 292 293 295 298 298 298 300 296 295 297 294 294 296 296 296 297 298 298 298 297 297 297 297 296 296 296 296 297 300 302 302 303 301 300 299 298 298 301 301 301 301 301 301 301
Wind_Speed
19 19 18 17 17 14 14 13 14 17 16 10 10 4 3 5 3 7 10 14 7 7 5 2 5 2 1 5 1 2 2 2 3 3 4 3 3 3 3 2 2 1 1 1 1 1 1 1 1 1 1 2 0 2 5 6 6 4 2 4 4 8 2 4 6 6 10 14 13 5 3 3 1 0 5 8 5 6 5 4 6 7 2 5 7 11 5
18 17 17 16 14 13 13 12 12 13 10 5 7 3 1 2 4 7 7 15 4 11 5 4 5 3 5 2 2 4 2 4 5 3 4 3 3 1 2 3 3 1 2 1 1 1 1 2 1 1 1 2 1 1 3 7 4 5 3 3 8 3 3 4 4 6 6 8 4 2 5 7 5 6 7 5 7 7 8 4 1 4 9 10 7 15 7
18 16 15 14 13 12 12 11 11 12 8 5 3 4 4 4 3 3 7 11 10 7 1 1 0 5 6 4 7 8 3 4 4 3 2 3 1 1 2 2 1 2 2 1 1 1 2 1 2 0 1 2 1 2 4 5 4 5 8 8 6 1 2 3 2 1 4 9 8 1 8 10 12 6 7 8 10 11 10 3 1 8 5 7 9 11 2
17 17 16 14 13 12 11 11 10 11 8 4 2 4 3 4 4 4 4 6 6 6 3 3 2 1 6 4 2 3 3 4 4 5 0 4 3 1 0 3 1 6 5 4 4 1 1 1 1 1 1 1 1 3 2 3 4 5 8 9 5 1 1 2 3 5 7 4 2 6 5 7 7 17 17 16 9 4 4 2 3 8 2 7 8 8 3
17 17 16 13 12 12 11 10 10 10 8 4 1 1 1 1 3 3 7 5 5 3 2 5 4 3 3 1 2 4 5 3 3 5 1 4 4 2 2 3 4 4 4 3 3 1 3 2 1 2 0 2 2 2 0 1 3 5 6 9 3 1 1 4 3 6 8 7 7 10 9 12 14 14 19 16 12 7 5 5 8 2 1 14 3 4 7
18 18 17 14 12 11 10 10 9 9 8 5 2 2 1 3 0 2 1 0 4 6 6 7 6 5 1 2 0 2 3 5 4 3 1 4 3 3 2 5 4 1 2 3 2 2 3 1 1 2 1 2 3 3 2 1 0 4 4 6 2 1 2 4 6 8 7 8 7 8 9 10 12 14 16 18 17 11 10 10 11 9 8 9 0 5 9
17 17 17 16 11 11 10 9 9 8 8 3 3 3 3 2 1 1 1 1 1 1 5 6 4 7 3 1 4 3 4 4 3 2 4 3 3 3 2 4 8 6 3 0 1 1 2 3 1 0 2 1 3 2 2 3 2 2 1 4 1 2 4 5 7 9 5 6 7 7 10 11 10 12 15 16 15 17 14 15 14 14 13 7 14 10 15
17 16 15 16 12 11 9 9 9 6 7 2 2 2 1 2 2 1 2 1 2 3 2 2 4 5 5 2 4 2 3 5 6 2 1 3 3 2 2 7 8 7 4 0 1 3 3 5 4 2 1 5 2 3 4 1 0 0 0 2 2 1 4 5 1 3 6 5 7 7 6 6 12 15 14 13 12 14 14 14 15 11 9 13 17 15 16
15 16 15 15 12 10 9 8 8 5 2 3 3 2 1 1 0 1 1 2 3 1 0 2 2 2 4 3 4 3 2 3 3 5 2 3 2 1 5 6 8 6 4 4 5 6 4 5 8 7 4 7 3 1 3 2 1 2 1 1 1 3 4 6 3 4 6 1 1 4 7 11 12 14 11 7 7 10 9 3 5 4 6 8 10 9 13
16 15 14 14 12 10 8 7 7 3 2 1 1 0 1 1 1 2 2 1 3 3 2 2 2 1 1 3 3 2 3 3 5 4 3 1 4 3 3 6 3 6 4 7 5 5 7 8 9 8 8 8 8 7 7 4 6 2 4 2 2 3 2 4 4 3 7 2 3 8 12 9 5 5 2 4 4 5 10 3 5 7 4 4 10 12 2
15 14 14 13 12 11 11 7 7 2 3 1 2 0 0 0 1 1 1 1 0 1 3 2 1 1 3 4 3 2 3 5 2 3 3 3 4 2 3 6 3 5 4 5 4 6 9 9 10 8 8 10 10 8 9 12 10 8 4 3 4 3 4 5 5 2 4 3 6 7 2 3 5 3 5 6 4 5 10 8 9 9 5 4 4 7 11
15 13 13 13 12 11 10 8 4 4 3 2 2 2 2 1 0 1 1 1 1 1 2 3 4 5 4 4 3 5 7 6 6 3 6 3 9 10 6 5 1 3 3 4 8 8 9 7 5 5 8 10 11 11 11 13 11 10 9 7 5 5 5 6 3 3 4 3 5 2 4 7 1 2 3 10 7 5 13 11 5 12 12 14 11 11 13
15 13 12 13 12 11 9 8 5 4 2 2 2 3 2 2 2 1 1 2 2 1 3 3 2 4 5 6 6 4 4 5 7 8 6 6 5 5 1 2 2 3 5 10 10 7 4 5 6 5 7 5 6 7 9 11 13 12 10 10 7 5 5 5 5 3 3 4 1 1 6 1 8 3 6 9 4 5 12 6 6 16 15 14 13 14 14
14 14 12 12 13 13 12 9 7 5 3 3 2 2 2 2 2 2 2 2 3 2 3 6 5 4 3 4 3 4 4 7 6 4 4 2 4 8 7 3 4 6 7 6 4 2 4 5 5 7 7 5 3 2 2 5 7 11 12 10 10 8 5 6 5 3 4 4 4 8 8 12 4 4 5 9 6 9 7 5 5 13 15 16 15 16 16
15 13 13 13 13 13 11 11 8 7 5 5 2 2 2 2 2 1 0 0 3 2 3 3 1 2 2 4 1 4 4 5 5 4 3 5 5 3 3 6 7 7 5 3 3 3 1 1 2 4 5 4 3 3 4 4 3 7 6 9 10 10 9 5 4 3 5 2 4 5 2 4 1 2 2 3 5 6 8 3 5 12 18 18 17 16 17
15 14 13 13 13 13 12 10 9 5 5 3 3 2 3 3 3 1 1 2 1 3 3 7 3 1 2 4 4 4 4 4 3 5 6 2 4 5 5 4 7 4 2 2 1 1 1 1 1 1 2 2 1 3 3 4 5 4 6 8 11 11 11 6 6 4 3 1 2 3 3 3 1 4 6 10 8 8 1 3 3 8 16 19 17 17 18
14 14 13 13 13 11 11 10 7 4 2 5 3 2 3 4 3 3 2 1 1 5 1 2 4 3 2 4 3 4 3 3 3 5 5 3 2 4 7 6 4 1 1 2 2 1 2 1 0 2 4 2 3 4 6 2 4 3 4 5 13 13 10 8 7 7 5 2 3 4 3 5 4 9 11 12 10 4 3 3 3 13 16 17 17 16 17
14 14 14 13 12 11 10 10 8 5 4 4 4 2 2 4 5 3 1 2 2 4 4 7 6 3 5 4 4 3 2 3 4 3 5 5 5 3 3 3 6 3 2 2 1 1 1 1 1 1 2 2 2 4 4 5 6 4 2 8 9 8 6 8 10 6 6 6 4 4 5 4 6 11 14 12 8 3 2 3 7 11 14 15 14 14 15
14 14 13 13 12 11 11 10 8 6 4 1 3 2 2 4 4 5 1 1 2 5 2 2 6 8 4 1 5 3 3 3 3 5 5 5 1 1 2 1 1 3 4 0 1 1 0 2 0 1 2 2 1 3 5 5 6 4 6 4 8 7 4 4 5 6 6 4 4 7 6 1 8 12 10 10 2 4 5 5 6 8 11 13 13 13 14
14 13 12 12 12 11 11 9 8 6 4 5 4 2 1 3 5 7 5 2 2 6 5 5 5 10 6 6 5 5 4 5 5 5 3 5 1 5 6 0 2 1 3 1 0 1 1 2 1 1 1 2 2 2 4 4 3 5 4 7 1 5 6 5 7 4 3 4 4 3 4 3 9 13 5 11 7 2 3 7 6 7 9 11 12 11 13
14 12 12 12 12 12 10 9 6 4 4 3 5 1 2 2 4 5 5 4 2 6 6 2 6 10 7 9 11 11 8 9 5 5 5 6 1 1 3 1 1 2 2 0 1 1 1 2 1 2 2 2 3 3 5 6 3 2 4 3 2 3 3 0 2 1 3 5 4 2 2 6 9 7 5 5 5 1 3 6 7 8 8 10 10 12 12
13 12 12 12 13 11 10 8 6 4 2 2 5 2 2 1 2 3 5 3 4 5 5 3 2 7 8 10 10 9 10 11 12 7 5 6 2 3 4 5 3 2 2 0 0 1 1 2 0 1 2 1 1 4 4 4 4 3 2 4 2 6 3 2 1 2 1 2 3 2 2 3 6 7 8 6 5 5 5 5 4 7 9 9 9 12 12
14 13 13 13 12 11 9 7 5 2 2 3 4 1 2 2 1 2 3 3 3 5 4 7 7 8 8 11 13 13 12 9 8 5 6 6 4 3 5 4 5 2 1 2 3 2 2 2 4 1 2 2 4 4 3 4 3 4 6 2 3 6 2 1 0 2 7 9 9 0 3 2 6 7 6 5 4 4 4 6 7 6 7 7 9 11 11
14 14 13 13 12 10 8 6 5 3 3 3 4 2 2 2 2 2 1 2 3 5 5 3 2 4 2 6 4 6 7 6 9 10 6 6 6 3 1 3 1 2 2 3 3 1 1 1 3 1 2 3 1 2 3 2 1 3 5 3 1 6 4 5 1 4 5 1 3 5 5 2 4 5 5 4 3 5 5 5 5 6 8 9 9 9 10
15 14 14 12 10 9 7 6 3 2 3 4 5 4 2 1 1 3 2 1 1 1 4 5 4 8 7 7 7 3 5 6 5 7 7 7 9 7 4 2 4 3 2 1 1 1 1 3 2 0 3 2 2 3 1 3 2 3 6 3 4 2 3 4 2 5 4 6 5 8 8 2 4 2 2 2 3 3 4 4 6 7 6 8 11 11 10
15 14 13 11 9 8 7 4 2 2 3 4 4 3 2 1 2 2 1 1 1 2 4 4 6 3 2 6 4 3 3 5 7 8 9 11 11 11 5 3 1 1 0 1 1 4 3 3 2 2 2 2 1 2 2 1 6 5 4 6 4 6 7 2 6 6 8 11 9 6 7 5 6 5 6 2 2 1 2 3 5 8 8 10 12 12 12
15 13 12 10 9 7 6 4 1 3 4 3 2 3 3 1 2 5 3 2 1 1 1 4 5 6 4 8 5 4 4 1 6 5 6 8 9 7 7 8 7 4 3 4 2 2 2 2 2 3 2 3 4 3 4 5 2 4 4 4 4 3 3 5 7 7 6 3 2 8 5 3 5 11 11 7 5 2 4 3 6 8 8 7 10 12 13
14 13 11 10 8 7 5 5 4 3 4 3 4 3 3 3 4 5 3 0 1 2 2 4 5 10 8 3 2 4 6 2 4 4 4 6 7 7 7 8 6 4 5 2 3 2 2 2 2 2 3 4 4 2 2 3 3 3 3 3 4 7 9 8 7 7 10 9 10 10 8 10 10 8 4 5 11 9 4 3 3 6 6 6 7 9 12
14 12 11 10 7 6 5 4 4 3 4 5 3 2 2 5 4 5 5 2 3 3 3 5 5 3 2 5 5 4 4 4 3 2 1 0 3 4 4 4 4 4 3 2 1 1 2 3 2 3 3 4 3 4 4 2 2 3 2 6 9 10 11 12 13 14 17 16 15 10 7 9 8 3 7 12 9 9 9 3 2 3 5 5 5 5 8
13 12 9 7 7 5 5 5 5 5 5 3 1 1 2 1 2 5 6 5 4 2 1 3 4 3 2 2 3 2 2 3 4 5 6 5 5 3 1 2 1 1 1 1 2 3 3 1 1 2 2 2 2 4 4 3 4 3 3 10 13 13 12 10 10 11 13 11 12 12 10 10 9 9 10 10 11 9 8 7 3 2 5 3 4 5 7
13 12 9 7 6 6 6 7 8 7 6 2 1 2 2 1 0 2 6 5 4 1 1 2 5 5 6 2 1 2 2 0 2 2 3 2 2 1 0 1 1 1 1 1 1 1 1 4 4 4 1 4 4 2 3 3 3 4 9 14 12 12 12 13 11 11 13 13 12 12 10 8 6 8 11 11 12 13 11 8 8 8 7 5 5 5 6
12 10 9 7 6 5 7 8 9 8 4 3 1 1 1 1 2 1 5 5 5 1 1 1 2 2 2 3 1 0 0 1 0 1 1 0 0 0 1 1 0 0 1 2 1 1 1 1 1 4 3 4 4 2 2 2 4 6 14 13 11 11 11 11 11 10 10 9 9 10 10 8 9 10 7 6 11 13 13 10 9 8 9 7 6 6 5
11 10 8 7 6 6 8 9 10 7 4 5 7 8 7 6 4 4 7 5 1 0 1 1 1 1 1 2 2 1 1 1 0 1 0 0 1 0 0 0 0 0 3 0 1 0 1 1 1 3 1 2 1 1 1 2 4 10 12 12 11 12 12 11 11 8 7 8 6 7 9 8 4 8 11 8 7 6 6 6 8 8 5 8 8 6 5
12 10 7 5 4 4 6 6 6 5 2 2 3 1 2 4 6 8 5 2 2 0 1 0 1 2 4 3 1 1 2 1 1 1 0 1 1 1 1 0 0 0 2 1 0 0 2 1 2 3 1 2 1 1 2 7 12 13 13 12 13 13 11 10 9 10 11 9 7 8 12 11 9 6 4 6 9 11 11 8 4 6 8 8 8 5 3
12 7 3 3 5 6 8 8 4 1 1 1 2 3 0 6 7 7 4 1 1 0 0 1 0 2 4 3 2 3 0 1 1 1 1 1 0 1 0 0 1 2 2 1 1 0 1 2 2 3 5 3 1 4 6 11 16 15 14 15 16 16 15 13 13 14 12 10 8 9 9 9 8 7 8 8 8 9 12 12 8 7 5 6 7 5 5
9 3 5 8 9 8 3 1 1 2 1 1 1 3 8 7 6 3 1 1 0 1 1 2 1 1 0 1 2 2 0 1 0 0 0 0 2 1 1 1 2 1 0 1 1 2 1 3 1 4 4 3 7 5 7 11 15 16 15 15 15 15 14 15 14 16 12 7 6 7 8 7 6 8 6 6 8 7 7 6 6 5 5 5 7 6 3
2 7 10 8 3 1 1 2 1 1 1 2 5 9 8 6 2 1 0 0 0 0 1 1 0 2 4 2 1 3 2 2 1 1 1 1 1 0 1 2 0 0 1 3 2 2 1 1 3 1 3 5 4 6 7 8 11 14 16 15 14 14 15 16 19 16 16 13 12 10 8 7 7 5 5 6 7 7 8 9 7 6 7 7 6 6 6
4 3 1 1 1 1 1 1 0 1 8 12 9 3 1 1 1 1 0 0 1 1 1 1 2 2 1 0 2 2 0 2 1 0 2 0 1 1 0 1 0 1 2 1 1 2 1 2 2 2 2 3 1 5 7 7 7 8 11 13 14 14 14 15 18 17 17 15 15 15 13 9 7 5 5 6 5 6 7 7 6 6 7 8 5 4 4
2 0 1 1 1 0 1 0 0 5 3 2 2 0 0 0 1 0 1 1 0 1 1 2 4 2 3 1 5 2 0 0 3 1 1 1 1 2 0 1 0 1 1 3 1 1 2 1 1 1 2 7 8 11 9 6 5 7 9 10 12 12 12 13 16 16 16 15 15 15 14 11 9 8 2 2 4 3 3 4 5 6 6 5 5 3 3
1 1 1 1 0 1 1 3 2 2 2 0 2 2 1 1 2 2 0 1 1 1 2 3 4 3 4 1 0 3 1 1 1 3 1 3 0 0 0 1 1 1 1 1 3 2 2 1 2 1 6 9 9 10 9 8 8 8 8 10 11 12 13 13 15 16 17 17 16 16 16 16 15 9 7 6 3 2 1 1 0 2 3 4 4 1 2
1 1 0 0 2 1 1 1 1 2 2 1 1 1 1 2 0 0 0 1 0 2 1 1 1 1 0 1 1 3 1 1 0 1 2 1 1 0 1 1 0 2 1 1 3 1 2 2 3 6 11 11 11 12 9 8 10 9 9 10 10 10 12 13 15 16 17 17 16 16 17 18 15 14 11 9 8 7 7 7 7 6 7 6 4 4 4
1 1 1 3 2 2 1 2 1 0 1 0 1 1 0 1 1 2 1 0 2 1 4 0 3 1 3 5 4 2 2 1 2 1 1 1 1 0 0 1 1 2 0 1 0 2 2 2 3 5 8 11 12 12 10 9 10 9 10 11 12 13 14 14 15 16 16 17 16 16 16 18 18 15 14 12 11 10 10 10 10 10 9 7 7 6 6
4 5 4 3 1 1 0 1 1 1 1 2 3 2 2 2 0 0 3 1 1 0 4 0 2 1 1 1 2 1 2 0 1 1 0 1 0 1 2 1 1 2 1 1 1 1 3 3 5 7 8 9 10 11 10 9 8 9 9 9 9 11 12 13 14 15 15 15 16 15 15 16 16 15 15 14 13 12 11 11 11 8 7 8 8 7 6
2 1 1 2 2 1 0 1 1 1 1 1 2 1 1 2 5 2 2 5 2 3 2 4 5 3 4 1 1 0 0 0 1 1 0 1 2 1 1 1 1 2 1 2 2 3 1 1 4 6 7 6 7 9 8 8 8 8 9 10 10 10 11 12 13 14 16 15 15 15 15 16 16 16 16 16 15 14 12 11 11 11 10 9 9 9 8
1 1 2 0 1 1 1 2 1 3 1 2 1 1 1 2 5 2 3 4 2 5 4 1 3 1 4 3 0 0 0 1 1 1 1 1 1 1 1 1 2 1 2 1 1 1 1 3 7 6 7 8 9 8 6 6 6 6 6 8 10 10 10 11 12 11 12 13 14 14 14 14 14 14 15 15 15 15 14 13 12 11 10 10 11 11 10
0 0 1 3 3 2 2 0 1 1 1 1 0 2 3 6 4 6 6 1 2 6 7 6 3 1 3 3 1 1 1 1 0 1 1 1 2 1 1 0 2 3 2 2 2 3 3 5 7 7 7 8 8 8 6 6 5 6 7 8 8 8 8 8 8 9 9 10 10 11 12 12 13 13 13 13 14 14 14 13 13 12 10 12 12 11 11
1 1 2 1 2 1 1 0 1 2 1 1 4 4 5 7 6 7 4 1 4 6 6 5 4 3 1 2 1 3 2 1 1 1 1 2 1 1 1 2 2 2 2 1 1 1 3 5 6 7 7 7 8 7 6 6 5 6 7 6 6 7 7 7 7 8 8 7 9 10 10 10 11 11 11 13 13 13 13 13 14 13 12 12 11 10 11
0 1 1 1 2 0 1 2 1 2 2 4 4 3 4 2 3 6 5 2 5 3 3 3 2 1 0 2 3 1 1 2 1 1 1 0 1 2 1 1 2 2 1 0 1 2 3 4 6 7 7 6 5 5 7 7 7 7 6 6 6 6 6 6 6 5 6 7 7 7 8 9 10 10 11 11 11 12 13 13 13 12 12 12 12 12 12
3 1 0 1 1 1 2 1 1 2 5 4 3 3 2 4 4 6 6 3 3 4 2 0 0 0 1 2 2 2 2 2 2 1 2 3 2 1 2 2 3 2 1 1 2 2 4 6 6 6 6 6 5 5 6 5 5 5 5 5 5 6 5 5 4 4 4 4 4 5 6 6 7 8 8 9 10 10 10 12 13 13 13 13 13 12 13
0 1 2 1 2 2 0 0 1 3 5 5 4 4 2 2 4 6 2 5 4 3 2 1 2 3 1 1 1 1 0 1 1 1 4 3 2 2 2 2 1 2 4 1 2 3 5 5 4 5 5 5 4 5 6 6 6 5 4 5 5 6 6 6 6 5 5 4 4 4 4 5 5 6 8 8 7 7 9 11 11 11 11 12 12 13 13
1 1 1 2 2 2 3 0 1 1 3 3 2 3 0 2 1 3 2 3 5 5 5 2 1 2 2 3 2 2 1 0 3 3 2 1 1 1 1 1 3 2 4 4 4 4 4 5 4 4 4 5 4 5 5 5 4 4 4 5 5 4 5 6 6 6 5 5 5 5 5 5 5 5 6 6 8 8 9 10 10 10 11 10 11 11 11
1 0 1 1 1 2 4 1 1 5 6 3 2 3 2 2 2 3 1 1 3 6 3 2 1 2 2 1 0 1 1 2 1 2 3 1 0 1 2 2 4 4 3 3 5 4 5 5 3 3 3 4 4 5 5 4 4 4 5 5 4 4 5 5 6 5 5 5 6 5 4 4 4 5 5 7 7 8 9 8 8 9 9 9 9 9 9
Wind_Direction
332 335 333 331 333 334 334 335 337 334 348 353 350 350 21 31 257 281 307 330 353 68 57 2 35 18 328 308 224 272 352 31 322 22 355 28 350 10 41 7 62 38 104 326 51 62 123 141 164 226 190 254 127 324 340 331 329 343 359 331 327 321 85 311 285 296 262 264 259 281 333 184 183 323 23 10 344 344 303 272 188 197 239 199 242 251 258
332 332 333 333 331 334 334 335 341 336 12 1 332 29 69 300 295 317 314 339 17 70 64 4 348 357 330 22 337 333 76 37 3 35 13 23 350 12 17 15 53 13 14 354 32 332 74 221 161 313 239 283 206 338 24 349 357 1 356 351 335 28 293 106 341 352 339 313 33 115 1 46 63 321 317 303 298 326 306 271 42 239 202 192 169 243 251
335 333 332 333 334 336 334 336 341 337 9 24 21 2 316 282 242 248 307 350 31 76 35 76 332 12 353 327 19 3 11 27 37 358 21 339 357 11 38 37 315 33 314 8 345 8 92 305 272 90 132 239 175 194 43 348 2 359 343 360 352 212 252 76 91 137 174 216 218 41 332 333 313 284 303 316 337 334 356 304 261 227 241 185 209 244 214
332 333 332 333 338 338 335 336 342 337 358 24 18 333 334 2 5 327 335 8 30 68 52 71 30 6 9 7 354 10 349 340 355 20 73 34 325 268 203 359 295 34 8 33 356 301 352 101 268 97 272 294 256 205 131 5 325 359 356 356 11 236 275 154 174 174 220 262 281 257 247 300 306 304 307 299 306 279 250 258 294 244 216 218 236 239 283
333 331 333 332 339 337 333 336 340 339 349 10 25 330 114 296 68 338 345 331 54 50 11 35 31 32 329 359 305 17 5 318 315 358 54 339 346 327 46 37 26 1 15 24 308 259 346 321 8 217 247 248 282 170 270 271 290 14 358 358 342 280 316 244 204 224 234 259 275 283 284 285 286 292 291 294 286 286 263 225 237 26 87 257 217 249 246
333 333 335 334 340 337 335 338 340 337 346 6 76 30 2 61 296 104 241 54 315 360 348 5 343 317 313 239 284 24 9 15 12 326 55 327 336 37 317 41 46 40 33 315 296 330 319 321 212 349 283 351 323 334 239 233 276 33 4 350 13 260 238 237 207 245 231 246 260 275 289 267 269 272 274 281 285 283 257 250 239 263 245 248 174 207 250
332 334 338 334 343 338 337 338 338 347 336 58 86 70 307 104 133 137 264 60 280 192 268 314 321 320 299 248 28 18 26 30 8 329 314 359 338 19 6 343 343 334 347 270 270 308 13 319 320 90 278 297 329 307 331 299 70 91 4 335 326 320 266 255 256 267 256 256 260 273 277 281 270 261 264 266 277 279 268 260 251 235 249 299 294 264 248
332 335 332 334 341 332 334 335 336 7 332 8 48 92 86 23 29 335 334 223 285 272 312 295 342 347 330 5 349 10 23 8 339 326 320 328 318 1 17 320 325 326 319 270 218 232 220 248 267 256 267 292 189 242 204 211 343 170 94 329 1 297 271 317 70 294 273 246 267 263 259 278 288 276 270 274 271 274 269 249 249 241 254 250 256 266 269
332 333 333 331 339 332 333 336 333 9 312 12 38 340 108 262 100 42 6 343 290 285 81 342 339 12 346 26 352 335 20 359 327 287 240 200 252 336 310 309 319 310 317 295 252 258 259 252 231 242 232 260 204 208 292 140 217 195 159 107 270 30 280 332 344 349 296 268 228 273 282 284 263 268 277 286 321 337 337 360 323 213 221 228 236 257 258
334 332 332 332 335 332 334 337 329 13 153 103 152 202 48 72 53 38 118 12 337 332 306 307 47 4 316 349 350 323 310 330 323 331 299 215 215 231 280 307 297 291 318 297 271 292 289 270 265 256 247 240 248 225 237 221 232 220 185 170 190 173 316 326 320 269 264 251 355 313 316 311 273 205 207 322 333 321 324 282 4 9 286 243 216 237 14
333 333 331 332 333 336 333 332 324 41 127 62 66 270 272 345 350 85 75 342 246 258 331 289 119 286 337 357 326 313 297 321 320 352 303 324 277 240 278 285 284 252 251 248 268 279 274 269 265 256 247 244 244 236 232 236 229 218 168 167 195 194 232 262 278 248 265 343 326 320 335 215 227 136 111 39 331 342 349 325 5 349 14 282 278 280 298
331 333 327 330 330 330 328 321 315 303 163 197 161 216 196 108 53 108 196 344 321 67 308 276 292 300 305 310 319 300 300 307 313 292 266 268 284 302 309 293 173 293 239 269 308 307 292 265 247 252 238 243 245 243 234 235 234 222 213 187 167 182 216 251 235 230 277 310 354 298 209 225 316 244 56 13 343 14 334 299 350 10 359 354 345 332 335
329 332 330 329 326 323 322 329 320 298 210 189 194 242 172 143 136 172 179 175 264 265 297 279 299 289 285 299 298 280 271 287 290 294 274 271 290 301 252 277 276 251 317 315 316 329 340 307 304 282 284 285 259 243 245 240 241 229 223 205 183 186 197 240 246 229 297 7 131 197 214 264 302 173 48 16 32 20 347 333 20 21 9 356 346 335 327
329 330 329 325 320 318 321 324 317 298 266 185 211 216 157 149 173 162 177 148 260 198 220 287 283 282 273 262 255 283 317 308 301 282 285 247 272 286 289 237 246 289 303 305 314 11 336 24 347 356 330 345 346 10 321 314 242 224 219 204 183 186 196 221 264 197 196 204 177 235 320 324 0 28 30 356 346 338 352 319 313 19 4 2 344 336 339
329 328 326 322 320 316 320 318 316 300 285 205 215 220 209 175 183 181 204 206 267 259 161 256 237 246 269 287 316 317 305 294 321 291 248 271 268 235 243 288 298 298 312 325 338 34 98 44 5 355 319 27 4 310 338 303 335 317 240 196 181 183 200 198 230 252 213 260 311 332 0 222 218 168 212 317 306 297 283 258 273 17 0 356 348 343 343
328 328 324 321 321 319 318 322 321 302 276 198 184 198 216 220 180 182 156 179 134 304 240 221 197 194 278 273 270 269 274 305 290 291 302 251 251 294 284 285 290 302 327 81 64 53 46 82 269 28 272 274 314 314 281 313 295 267 259 216 195 191 202 215 212 262 39 32 162 221 208 238 130 292 340 329 315 307 303 171 221 21 353 354 348 348 347
328 327 323 323 324 326 323 326 327 330 333 162 205 182 228 179 177 164 134 197 167 238 171 160 176 215 276 277 244 253 225 241 294 309 308 295 293 292 301 305 298 35 55 44 0 29 356 5 110 202 277 267 292 301 300 261 276 257 190 212 198 200 196 191 215 241 220 224 239 263 223 253 291 339 338 323 309 352 143 189 37 1 347 347 347 354 350
328 326 324 329 330 328 328 328 335 331 328 177 183 203 213 177 186 142 182 172 206 275 231 217 192 189 213 215 250 247 255 263 249 244 254 289 296 297 302 333 333 338 52 360 50 65 25 187 319 292 262 242 262 285 290 329 292 318 276 172 187 188 177 187 210 212 228 224 262 274 302 290 337 331 318 320 300 171 123 64 1 342 342 343 340 352 356
324 326 327 329 332 328 327 329 333 333 342 153 167 202 242 186 173 172 143 197 185 258 214 244 216 236 239 219 246 246 234 276 289 285 289 289 231 223 263 288 39 294 14 72 53 165 52 274 80 174 250 271 238 285 327 303 319 300 284 145 168 176 171 172 213 228 220 208 227 238 244 288 341 329 325 308 9 49 84 1 354 335 344 336 339 339 352
324 328 331 328 327 325 322 323 327 328 339 155 159 186 216 171 182 173 176 217 201 264 267 242 208 235 194 217 241 242 244 232 212 238 248 266 46 348 321 10 323 322 316 50 311 241 134 238 238 29 286 271 260 316 288 255 232 279 314 321 221 154 168 189 185 201 228 226 236 292 303 266 349 325 330 7 87 164 330 313 325 347 337 338 335 347 346
327 330 329 326 322 320 321 322 317 317 316 147 149 176 288 200 178 197 205 205 246 286 293 220 237 246 239 233 234 242 240 251 233 227 221 249 264 359 268 319 164 27 295 130 168 253 191 284 277 197 202 175 283 303 308 324 283 180 315 305 45 30 221 167 174 182 232 181 195 216 300 317 337 359 58 51 60 64 10 346 324 350 352 341 338 345 348
327 328 326 322 321 320 318 315 314 313 294 207 146 153 230 185 174 191 207 204 225 233 258 294 280 269 253 253 257 244 237 234 242 236 261 271 193 207 264 296 247 186 246 183 302 313 276 225 17 305 287 285 337 259 302 303 302 340 306 327 72 27 12 360 286 355 313 311 338 337 318 18 30 53 70 63 43 24 27 353 341 347 343 334 339 342 347
326 326 324 322 319 319 320 313 307 290 256 228 151 196 193 135 202 168 158 226 235 254 272 279 274 273 267 254 241 241 240 238 246 230 213 238 253 194 235 249 271 196 230 197 207 198 230 138 240 212 321 199 203 292 258 214 283 2 337 309 267 297 266 155 218 270 282 271 249 334 39 40 78 72 87 87 63 28 29 21 343 351 330 332 328 334 343
326 325 324 321 320 319 314 313 307 271 230 231 177 148 209 193 174 117 231 247 279 297 271 209 3 303 271 300 286 200 218 224 225 225 208 197 243 236 202 244 275 245 228 220 163 241 248 172 237 149 243 263 277 231 286 297 338 345 318 310 301 297 345 353 288 316 358 222 149 8 1 336 121 129 129 121 113 63 27 9 336 327 330 328 324 328 341
324 323 323 321 317 315 316 312 305 293 229 223 203 203 190 217 156 159 150 271 281 296 307 308 242 242 267 278 286 232 204 209 179 183 183 195 214 225 222 191 184 201 243 308 134 254 176 267 310 227 233 243 216 273 120 293 248 54 321 302 338 323 24 332 4 316 232 257 325 327 308 250 149 183 162 85 46 59 45 13 333 317 333 332 327 331 338
323 323 322 321 317 310 303 304 285 232 205 233 191 155 186 214 157 129 143 250 264 277 300 307 279 299 290 332 321 285 264 189 179 178 189 199 207 225 262 355 321 46 311 239 157 241 247 268 271 271 269 267 23 286 269 156 297 307 270 285 249 291 322 308 355 304 280 282 290 293 260 201 134 74 34 353 128 23 41 3 339 333 358 345 338 342 337
323 323 321 317 313 307 293 286 257 236 222 200 140 132 155 239 178 167 171 185 332 342 355 273 290 300 359 325 288 306 316 215 160 170 195 202 215 222 233 261 276 285 279 291 254 267 354 320 285 266 220 257 348 293 281 287 266 300 301 286 303 284 322 346 336 307 285 265 23 42 19 318 299 343 337 353 352 24 350 350 17 351 356 352 338 334 337
322 321 318 313 308 300 292 271 257 185 194 180 152 143 172 201 209 209 233 155 128 174 251 272 303 300 312 273 285 330 341 15 133 178 207 215 214 213 228 242 254 276 290 297 345 335 303 290 281 318 306 311 297 266 203 261 308 279 248 282 349 334 341 337 307 295 286 299 310 319 309 281 271 285 302 349 346 324 306 359 6 345 344 344 337 335 330
321 320 317 312 304 289 275 255 225 200 141 125 126 161 228 221 208 206 215 189 191 245 247 270 284 312 15 306 328 342 359 45 51 54 55 13 198 189 215 235 243 268 288 291 234 253 268 254 269 300 306 301 301 295 324 305 302 295 4 359 340 317 308 298 288 283 274 278 283 281 264 263 279 288 312 305 308 320 316 289 335 325 330 330 329 318 311
321 319 315 308 300 278 245 230 210 185 151 124 135 68 38 353 188 202 196 184 174 220 289 7 331 260 300 299 301 326 340 28 44 54 53 53 47 58 73 163 248 216 19 40 320 351 336 356 348 304 299 265 277 324 305 332 312 274 346 339 318 308 300 288 283 280 279 279 275 269 258 258 269 275 271 266 269 260 262 268 260 316 284 273 280 301 300
319 315 305 294 283 270 237 214 199 177 165 138 90 55 53 46 279 189 182 186 182 120 8 161 252 310 319 252 212 285 290 321 76 72 66 75 70 55 335 77 8 22 64 357 47 266 319 8 341 338 308 321 348 319 311 314 296 291 326 322 307 305 314 309 291 272 267 268 262 261 259 254 250 260 254 244 245 244 241 230 220 235 242 239 256 271 301
313 305 297 286 278 240 217 200 196 175 161 144 125 142 181 183 180 191 171 172 149 161 126 320 318 335 287 298 265 200 195 288 71 42 351 126 358 32 18 96 170 219 150 137 269 352 13 270 331 321 332 349 350 282 289 279 285 300 310 315 320 316 314 304 304 297 299 293 269 276 270 244 221 224 249 217 232 233 230 213 195 206 242 235 234 244 257
310 303 289 276 271 246 221 204 193 175 186 257 263 267 250 223 173 163 147 127 98 157 119 88 206 259 296 258 318 46 110 15 354 50 313 218 218 99 328 277 52 7 293 61 352 132 278 305 244 307 354 52 9 329 266 256 293 307 313 319 321 325 314 307 306 297 302 316 309 272 277 290 243 218 227 236 262 265 234 204 193 189 211 243 245 242 236
313 300 281 253 234 191 184 178 166 166 327 346 341 327 315 172 147 153 144 103 117 136 84 143 321 354 266 314 42 252 144 154 244 73 326 290 162 91 211 336 241 123 315 100 219 33 300 253 333 290 251 6 14 292 348 342 339 340 336 333 338 333 328 310 325 326 321 311 304 278 274 272 275 275 249 214 220 243 257 249 216 187 208 228 250 234 217
326 311 252 191 170 156 142 134 119 151 198 267 249 261 142 125 133 164 153 125 100 339 27 276 156 328 333 342 40 278 239 87 312 196 153 258 336 197 257 106 318 71 310 129 18 114 339 355 270 358 342 284 312 25 15 336 346 345 347 345 347 346 344 350 348 331 319 311 297 285 276 274 277 266 244 232 224 226 236 241 235 216 227 239 248 247 184
346 102 134 135 127 131 121 98 96 102 355 258 244 149 128 114 120 110 101 92 132 153 103 242 138 270 221 278 286 276 118 11 241 347 210 277 359 5 58 121 36 259 183 71 9 357 350 290 42 2 319 26 35 17 356 342 349 345 344 346 346 352 354 348 333 333 336 316 288 281 286 284 252 257 252 235 229 224 216 222 233 237 238 249 258 267 258
12 124 121 113 99 33 40 210 263 158 223 208 155 140 130 114 86 112 56 18 354 144 188 206 55 231 175 241 262 283 26 346 334 3 335 74 229 241 65 39 128 243 44 6 26 12 288 1 90 312 341 27 16 3 3 349 349 344 346 345 347 350 358 2 358 352 2 9 14 8 345 305 295 283 264 243 227 232 237 236 232 235 250 248 255 259 258
123 128 99 47 48 40 1 319 282 233 132 130 138 107 12 12 107 191 137 4 261 168 331 56 261 257 352 78 294 253 53 260 76 140 306 230 34 318 177 123 238 33 18 316 257 160 129 53 54 50 328 328 324 0 355 351 349 344 344 346 347 351 357 8 7 8 5 4 11 11 4 343 320 297 254 262 236 224 236 251 254 247 250 255 248 247 270
135 38 43 35 102 195 186 255 169 112 74 11 35 185 305 74 71 357 270 221 146 241 165 140 253 200 155 196 270 294 168 274 319 53 46 270 110 316 24 61 313 83 334 15 312 199 10 1 56 43 17 352 1 360 357 357 354 359 353 350 347 349 356 9 16 12 10 9 6 12 12 2 337 336 326 287 300 295 282 269 275 275 275 275 275 268 258
67 78 211 48 67 246 319 305 353 69 35 35 331 101 335 293 67 300 206 10 321 208 128 275 214 191 189 185 285 299 223 77 339 310 247 315 192 171 257 69 266 87 1 81 267 9 107 13 297 330 14 7 6 356 357 357 358 358 360 354 353 355 1 13 17 17 17 15 11 8 9 16 19 10 17 28 359 341 2 99 63 293 253 232 223 269 259
125 124 48 147 217 149 229 264 2 58 56 27 356 356 66 347 294 203 41 20 235 252 189 201 343 347 270 104 144 245 295 102 206 134 116 196 250 82 57 38 213 88 357 287 280 80 62 73 355 17 3 347 350 350 357 3 4 355 354 356 357 359 6 16 23 19 19 19 14 12 13 13 14 16 16 32 47 36 33 39 37 30 35 37 44 15 349
202 206 165 113 98 97 55 25 60 25 55 155 106 297 249 240 338 7 95 46 297 306 308 172 314 270 275 181 209 177 295 182 130 107 93 326 270 125 196 311 5 96 27 250 103 52 54 38 349 12 349 345 345 348 356 358 360 360 353 354 357 360 3 12 18 21 21 22 17 15 13 15 17 15 14 18 32 34 35 35 32 32 26 23 31 25 15
49 38 55 65 45 17 120 36 321 104 86 352 29 354 0 23 344 281 295 283 301 126 264 220 246 267 285 73 319 204 209 199 111 247 118 270 317 56 71 17 34 22 296 341 55 37 37 9 6 358 338 337 338 350 351 347 347 353 351 351 355 357 1 8 16 21 20 19 18 16 13 16 18 16 17 18 20 30 33 35 37 35 40 48 45 33 20
110 70 53 347 57 311 159 6 260 18 359 76 91 327 332 351 310 354 339 284 292 308 255 3 315 53 294 272 171 262 30 357 93 93 13 252 75 1 37 47 282 268 33 37 37 48 23 11 351 324 322 325 337 346 346 342 348 353 354 349 351 354 359 5 14 20 20 19 19 15 16 16 14 16 18 19 18 16 19 27 28 31 32 39 44 39 31
149 341 31 30 22 277 57 315 344 101 35 298 136 203 156 268 273 213 224 248 148 270 299 275 274 254 249 271 16 270 100 247 299 85 301 28 42 353 93 278 270 20 62 6 357 35 62 359 323 329 334 341 333 329 330 333 340 351 346 353 356 357 0 8 12 17 22 22 17 14 16 11 14 14 17 17 16 19 19 19 14 22 26 32 36 33 30
110 174 80 64 348 327 94 206 15 8 302 146 213 206 201 243 211 253 257 195 284 298 313 306 311 213 269 260 131 292 358 74 40 357 357 67 93 324 284 288 65 47 10 36 27 18 24 320 319 326 330 332 324 321 323 327 333 350 5 0 347 357 359 4 8 17 19 21 21 22 15 10 11 12 14 15 18 18 17 16 14 16 22 35 35 32 28
78 24 85 121 102 278 85 76 251 206 188 233 232 196 207 239 232 242 257 251 258 263 282 270 235 204 254 326 359 359 11 22 73 325 62 43 32 265 3 73 31 357 12 359 15 337 308 312 317 316 326 325 321 322 326 329 343 355 353 345 351 358 0 6 9 12 6 10 24 27 21 15 11 9 12 18 18 15 13 14 15 16 21 26 25 30 35
48 250 98 79 242 204 44 265 216 312 269 213 248 232 249 259 329 319 289 233 242 307 308 329 3 355 349 312 87 136 296 3 55 331 34 246 7 41 8 41 62 44 38 41 266 257 273 294 309 316 319 319 305 326 335 334 337 349 350 347 344 353 0 8 12 6 3 5 7 20 25 22 15 11 13 16 14 15 12 10 11 16 19 19 21 25 27
127 115 97 190 198 160 228 269 61 313 282 296 284 289 310 348 308 283 286 298 323 309 278 107 153 86 331 309 67 29 5 337 69 285 2 26 62 13 334 24 356 6 41 1 300 314 303 301 308 314 312 316 332 348 332 326 324 347 351 348 339 338 352 0 359 359 1 1 5 7 11 22 23 15 12 16 17 18 16 15 13 14 14 14 15 17 20
65 335 37 73 7 328 261 67 56 303 308 322 2 325 325 343 300 285 303 345 326 353 352 9 33 92 266 49 12 11 13 331 123 6 56 43 12 349 9 19 351 258 274 248 249 276 286 295 308 317 318 321 338 354 339 329 336 351 350 348 352 357 9 10 9 9 8 0 357 8 10 2 10 25 24 20 16 14 22 24 22 18 17 14 12 14 19
29 115 231 173 138 214 145 244 205 226 298 283 262 258 223 277 238 282 321 358 346 22 41 43 302 52 11 18 36 35 296 221 53 36 116 65 343 56 120 237 252 239 255 259 257 265 279 296 308 301 325 331 335 337 332 322 321 340 0 355 352 2 17 19 15 7 4 11 15 18 11 7 1 12 24 27 25 24 25 28 26 23 20 16 15 16 17
58 68 270 280 141 150 167 154 137 197 223 229 210 240 155 293 263 257 277 83 43 49 350 304 61 29 54 52 255 220 318 37 38 30 32 311 168 110 239 211 257 259 262 291 302 300 309 301 288 315 324 326 339 327 325 327 337 354 11 354 352 6 22 27 20 3 357 9 21 17 6 10 19 23 26 35 32 34 32 26 22 22 21 19 16 19 24